Theta_e
306 311 313 313 314 315 316 316 316 316 317 316 314 309 305 306 307 307 308 308 307 305 304 306 305 307 308 310 311 312 307 308 311 311 312 314 314 316 317 317 317 318 321 323 325
303 304 307 309 311 312 314 315 315 314 315 317 316 315 314 306 306 307 309 308 308 305 304 304 308 309 310 311 311 308 304 308 310 309 309 310 312 312 314 314 316 319 320 325 326
303 302 303 304 306 308 311 311 314 313 313 315 316 317 317 317 305 309 307 306 306 306 303 304 308 309 310 311 311 310 307 309 310 311 310 310 310 311 313 312 314 316 318 320 324
304 303 302 303 303 303 304 307 309 311 310 313 315 316 317 317 306 308 306 306 306 305 303 305 307 309 309 309 312 310 310 310 311 311 310 309 310 309 311 313 313 312 314 318 318
303 303 303 302 302 303 303 302 305 306 308 308 310 315 316 314 316 310 309 307 307 305 304 305 307 309 309 308 310 310 310 311 311 310 310 310 309 308 309 310 312 311 314 316 318
304 303 302 302 303 301 301 303 303 305 304 304 306 314 316 312 315 313 309 307 307 305 304 307 307 308 308 308 308 310 309 309 310 310 310 309 308 310 310 310 311 311 311 315 315
305 304 303 302 302 302 302 301 302 304 304 302 302 310 314 315 315 315 312 310 307 305 305 306 307 308 308 307 309 309 307 306 307 309 308 310 307 308 310 310 310 311 311 311 314
305 305 304 302 301 301 301 300 301 302 303 303 300 308 312 313 315 316 317 316 313 306 305 307 307 307 308 309 308 307 307 307 307 306 309 308 306 307 310 310 310 311 310 311 311
304 305 304 303 302 301 300 299 301 301 301 302 302 307 309 312 314 314 315 314 309 307 305 306 307 307 308 307 305 306 303 306 307 307 307 307 306 308 309 309 309 310 310 311 311
303 304 304 303 303 301 300 300 302 302 301 303 305 307 306 311 312 314 315 309 307 306 305 307 307 306 306 304 303 305 306 306 305 307 307 306 305 305 308 307 309 310 311 311 311
303 303 302 303 302 302 300 301 301 304 303 306 306 305 311 310 311 311 311 308 307 307 306 308 307 306 307 306 305 306 306 305 306 306 306 304 304 305 306 308 307 309 309 311 312
300 302 302 302 302 301 301 302 301 305 305 304 304 307 307 309 309 309 309 307 307 307 307 308 307 306 306 307 307 306 307 305 304 305 306 304 304 304 304 305 307 308 310 310 311
296 298 300 301 301 301 300 302 302 303 305 304 303 306 307 309 310 308 308 307 306 306 307 307 308 307 308 308 307 307 306 306 305 306 305 304 302 304 304 305 306 307 309 310 310
296 296 300 302 301 301 301 302 301 302 304 302 303 304 306 307 310 310 309 307 306 307 306 306 307 307 308 309 308 309 307 307 307 306 304 304 304 303 305 305 305 305 307 309 310
295 295 295 301 301 300 301 301 301 302 296 300 304 303 305 307 309 310 309 307 307 306 306 307 307 307 308 308 308 309 307 308 307 306 306 305 303 303 304 305 305 305 308 309 309
294 295 295 297 301 300 300 301 302 303 301 300 305 307 307 307 308 310 308 308 308 307 307 307 308 306 307 307 307 306 307 307 308 306 304 305 306 305 306 307 306 306 308 310 310
294 294 296 296 298 300 300 301 304 304 299 298 306 306 307 307 306 310 309 307 308 309 308 308 306 306 306 306 306 307 306 305 306 305 307 307 304 305 306 307 307 306 308 311 310
293 294 295 296 296 298 299 299 302 298 301 305 307 307 307 308 307 310 309 309 308 308 308 310 306 306 305 305 306 306 307 308 308 310 308 304 307 308 306 307 309 310 310 311 310
293 293 294 294 295 297 298 300 301 300 302 302 307 307 307 309 308 307 310 309 308 308 306 308 308 306 306 305 305 305 306 308 306 299 306 307 306 306 306 306 306 307 309 310 310
293 293 292 294 294 298 297 298 300 300 301 301 302 306 306 307 309 307 309 310 309 308 308 310 309 306 305 306 305 305 305 307 304 305 309 308 309 310 311 308 306 305 306 309 310
292 293 293 293 294 296 297 296 297 297 297 301 303 302 306 307 308 307 307 308 309 309 309 309 309 307 305 305 306 306 306 306 306 308 309 308 311 308 311 310 307 305 308 308 310
292 292 292 294 296 297 297 294 296 298 298 298 299 303 303 302 309 308 308 307 308 309 310 309 309 304 307 306 305 307 307 308 308 305 307 310 312 310 310 309 308 309 310 309 309
293 292 293 294 295 294 293 295 296 296 297 297 298 300 300 303 301 305 306 307 307 308 310 310 307 303 309 309 306 306 306 307 308 306 308 309 309 308 308 308 309 308 309 309 310
293 290 293 294 295 294 289 291 296 296 297 296 296 296 297 297 297 302 303 304 305 307 309 310 309 310 310 309 307 307 306 306 307 305 309 309 309 310 308 308 308 309 309 309 309
292 290 292 291 290 293 293 289 292 293 296 297 297 297 296 296 296 297 301 302 303 305 308 310 312 310 309 307 308 307 306 306 305 308 307 310 305 308 309 308 307 309 308 308 308
294 292 293 286 291 291 293 294 293 293 291 294 295 295 295 296 296 296 298 300 302 301 304 307 310 310 312 309 308 309 307 306 307 307 306 308 308 308 309 310 310 311 308 308 308
293 293 294 293 289 292 292 292 294 294 293 294 294 295 295 297 297 296 297 296 298 299 300 302 305 309 310 310 310 311 310 306 306 307 307 307 308 307 308 309 309 310 311 311 311
Wind_Speed
16 18 17 15 14 11 13 12 13 14 14 13 13 14 15 15 15 15 14 7 6 5 8 1 3 5 5 3 3 1 3 3 3 4 2 4 4 4 2 2 2 2 5 5 18
15 17 18 19 17 18 18 18 15 15 14 14 14 13 15 16 16 15 10 9 9 6 7 5 2 5 3 3 2 3 3 6 1 2 2 5 6 6 3 3 3 4 4 10 17
15 17 15 17 19 20 21 21 19 16 16 16 16 15 14 15 14 3 4 4 6 9 7 10 7 7 4 4 6 4 5 1 4 3 5 4 7 8 0 3 5 8 15 15 17
20 19 15 13 16 19 20 23 25 22 18 15 17 16 14 12 4 1 3 5 4 7 8 9 8 5 3 4 10 3 7 5 7 5 5 3 9 10 7 9 8 12 8 18 19
20 20 21 17 17 16 16 19 17 22 24 19 16 18 13 7 11 12 10 9 6 4 9 9 9 6 3 4 9 4 4 11 8 12 9 9 8 8 21 21 17 12 10 15 19
23 23 21 19 19 19 18 16 14 18 18 21 18 12 13 6 10 10 8 6 5 5 9 11 4 5 6 4 3 1 2 6 9 11 8 6 4 3 12 10 14 19 20 18 20
25 24 22 19 20 19 18 19 15 17 17 16 15 12 16 24 10 10 6 4 5 7 8 12 7 4 2 3 5 2 5 6 11 18 6 5 5 9 25 23 25 14 13 23 22
27 26 23 21 20 22 21 21 18 18 18 16 14 11 16 17 14 23 19 19 11 9 11 9 9 6 2 3 3 1 2 3 5 8 5 7 8 11 12 11 14 20 22 16 19
28 27 25 22 21 19 23 24 20 19 20 13 11 9 13 10 23 26 22 14 11 11 11 8 9 5 4 3 3 3 4 5 6 5 5 5 6 6 2 4 6 6 10 23 24
30 30 28 27 24 22 22 17 20 19 15 7 11 5 20 13 15 16 18 16 11 13 9 7 5 3 3 4 6 5 4 5 6 4 4 5 12 10 27 17 25 21 13 14 22
27 31 30 29 27 25 23 20 14 8 20 14 16 10 7 19 10 10 17 19 11 11 6 8 4 10 11 12 5 3 1 2 4 3 4 7 9 11 19 23 20 25 19 20 18
24 26 30 31 31 29 21 18 13 6 10 21 31 26 19 5 4 14 19 16 10 5 7 4 13 7 8 7 8 7 4 5 6 3 3 5 10 13 12 14 28 30 31 26 24
35 29 31 29 29 29 25 27 19 14 8 16 32 35 36 20 16 22 29 15 5 9 14 8 5 19 13 8 11 7 8 4 6 4 4 5 7 7 7 15 27 30 35 33 32
31 38 30 27 25 28 26 25 19 14 5 8 14 17 35 28 10 25 33 19 7 14 8 10 10 9 10 11 9 8 8 8 5 1 4 2 5 7 9 8 6 25 33 37 33
31 34 38 23 23 21 25 21 16 12 3 5 10 12 25 32 17 28 36 24 11 11 8 10 10 17 8 8 10 5 2 8 4 3 2 2 3 7 4 6 11 13 25 29 32
31 31 36 26 28 25 19 19 22 6 12 5 12 10 12 31 4 27 33 14 13 8 4 8 8 9 9 5 11 7 6 6 5 3 2 9 8 4 6 10 6 6 20 23 24
29 30 29 33 22 23 25 25 8 12 3 6 6 12 13 13 20 12 18 19 10 8 10 5 5 4 9 7 4 5 7 2 2 1 7 3 4 6 7 8 7 7 15 13 19
28 31 32 32 25 30 24 6 10 11 16 3 6 15 10 13 20 12 19 18 19 3 11 13 5 12 5 8 9 7 8 6 8 4 3 3 8 6 15 14 9 12 16 15 18
28 30 31 34 30 33 23 12 8 4 11 5 6 7 7 10 6 14 18 22 19 17 9 8 8 6 17 6 13 6 9 6 5 2 2 5 7 8 10 10 7 6 7 15 18
29 30 35 32 31 34 9 16 5 2 7 8 11 3 9 11 9 19 11 17 15 22 4 5 2 9 9 7 6 10 11 4 2 4 4 5 6 8 3 11 6 7 15 20 22
23 13 33 30 23 20 10 7 9 17 12 3 5 5 7 7 12 11 10 6 24 16 18 3 4 2 8 10 16 6 8 4 6 5 5 1 6 8 16 11 9 11 22 23 26
19 4 19 16 10 5 6 8 5 4 4 5 4 7 4 7 2 10 15 12 14 16 23 13 3 4 15 2 10 15 9 15 8 6 4 3 9 3 9 9 7 5 11 17 21
6 15 19 26 12 12 2 4 7 5 11 8 4 5 10 5 5 7 5 6 11 18 15 16 6 3 2 5 4 17 12 20 4 3 12 7 6 1 2 5 5 8 11 13 17
9 2 9 20 1 5 3 4 5 15 14 12 10 14 16 12 9 8 6 7 9 14 12 12 9 22 18 22 8 9 17 13 14 2 6 20 3 2 5 7 3 6 11 14 18
13 7 10 5 7 10 9 5 17 7 6 17 7 11 5 3 10 13 8 10 10 4 1 6 11 15 22 8 18 14 15 20 14 27 8 31 11 8 5 6 8 11 9 13 18
10 4 7 1 4 15 18 16 21 18 9 12 17 15 13 11 12 17 10 10 3 9 2 0 2 6 20 20 19 4 19 20 24 26 18 29 19 6 16 16 6 9 13 17 20
22 16 10 7 6 9 14 25 20 20 13 19 11 15 18 17 22 27 24 22 11 7 4 3 2 2 13 10 16 18 17 21 23 23 27 17 27 5 14 10 10 19 21 23 24
Wind_Direction
294 278 275 282 290 291 284 295 307 314 317 321 321 322 317 312 307 305 302 281 263 256 238 246 201 175 182 192 253 316 57 242 258 351 28 17 57 25 14 110 89 137 161 186 176
302 297 285 280 278 286 280 278 285 296 308 316 319 321 327 320 312 305 292 261 258 253 232 208 109 149 179 190 214 122 141 228 321 31 32 3 46 356 338 344 178 138 157 162 175
322 318 300 283 283 275 278 278 276 282 292 304 313 318 323 327 318 306 352 329 275 222 217 198 182 206 218 200 189 195 203 288 347 40 19 352 360 340 192 287 236 233 209 199 197
315 319 321 308 295 288 281 278 277 279 283 285 293 306 311 318 291 294 5 350 333 207 201 193 187 184 199 216 194 218 246 281 308 351 348 342 330 330 274 238 229 304 254 219 207
298 303 309 316 300 300 303 282 293 282 278 283 283 285 300 283 265 268 289 298 295 239 199 177 188 194 209 225 237 221 240 280 279 310 292 290 270 259 271 257 258 263 251 226 217
289 297 308 300 300 298 300 301 287 296 288 278 281 284 281 246 260 263 279 272 267 215 186 177 157 245 283 273 202 153 341 293 288 278 270 225 251 220 269 268 254 243 242 232 225
280 283 289 297 290 296 301 302 285 290 292 289 275 267 255 248 254 250 251 275 257 219 184 197 229 226 22 301 327 27 342 314 249 246 236 205 283 232 270 262 252 245 247 236 234
279 279 281 282 279 285 292 297 295 277 286 292 280 255 255 258 257 245 256 255 243 217 211 194 215 231 216 318 326 101 138 320 264 171 213 142 267 277 305 245 264 257 240 237 233
280 275 273 273 276 289 297 285 290 287 285 279 276 233 264 243 232 242 241 235 214 206 207 199 199 186 161 109 13 245 220 211 303 164 141 168 261 267 96 331 305 275 248 234 239
279 276 273 270 271 279 298 287 285 288 278 248 218 239 243 229 235 228 222 209 184 175 156 162 181 161 130 132 211 198 211 246 229 194 153 178 256 271 276 288 280 273 258 252 238
281 273 271 270 272 275 281 276 291 263 232 209 199 206 303 205 193 203 194 180 162 169 155 189 167 201 197 197 205 115 86 323 286 224 163 220 259 268 272 278 255 253 250 234 227
280 281 267 265 266 276 263 240 231 310 289 247 240 236 231 172 247 202 184 176 177 179 155 149 227 195 196 203 221 259 276 274 287 193 219 254 262 263 252 244 249 238 244 237 228
289 297 261 264 260 252 244 243 243 266 270 249 237 240 233 234 230 200 184 181 168 173 192 193 210 185 197 193 209 217 220 224 224 331 287 333 286 273 275 245 252 247 245 244 231
289 283 264 249 242 234 241 242 235 240 273 244 209 238 221 222 249 207 195 169 189 192 165 233 227 157 193 218 191 226 195 212 224 101 239 71 286 300 274 269 231 241 233 235 234
283 281 274 243 231 225 240 238 217 196 264 223 192 192 198 185 135 193 196 196 179 169 158 222 177 203 205 190 182 207 169 192 182 175 351 241 261 267 262 255 241 239 231 231 231
275 277 280 292 224 226 222 207 198 197 231 271 152 168 152 196 200 161 178 189 189 177 219 192 186 177 188 170 177 140 87 53 53 86 298 200 192 235 220 229 249 246 240 238 230
277 277 264 271 258 225 202 194 199 213 251 240 168 165 169 179 211 168 176 197 172 161 198 155 194 183 151 121 111 134 116 27 1 339 233 167 184 246 252 251 217 246 240 232 216
279 273 258 255 268 225 205 217 235 228 221 28 139 164 182 143 207 194 178 194 224 193 162 180 205 172 180 167 158 163 164 162 198 208 247 81 233 257 230 250 256 245 242 206 194
277 274 264 266 264 209 192 222 215 188 214 237 150 156 214 188 163 202 191 204 201 207 165 169 230 159 173 150 142 202 209 164 105 25 58 221 280 296 253 265 235 189 170 181 187
264 270 264 257 261 199 204 223 225 295 4 348 228 208 192 200 181 192 200 206 208 213 210 192 134 192 178 117 243 177 142 165 7 156 243 267 251 227 200 237 234 196 205 202 200
262 256 263 244 245 232 210 207 232 253 264 314 325 297 223 215 202 197 206 226 196 197 214 187 132 299 133 212 175 145 182 180 139 177 184 242 257 214 218 215 217 225 224 213 207
245 254 261 220 213 245 185 159 218 158 208 230 287 288 291 233 264 224 208 208 191 191 203 203 145 151 202 272 197 207 188 179 182 215 221 175 242 243 223 219 209 222 199 207 214
252 242 248 212 218 220 267 156 173 158 206 180 257 289 29 9 308 208 288 277 249 186 194 200 201 112 102 323 244 212 211 199 118 97 207 189 248 333 136 102 145 145 165 182 196
223 218 221 218 264 174 168 261 222 202 220 213 238 246 281 290 303 312 336 251 275 285 257 174 207 214 214 215 126 194 195 204 216 154 189 228 185 342 162 154 179 152 176 181 188
207 207 201 173 223 213 203 196 232 249 197 184 196 210 201 240 303 285 258 291 294 254 138 237 217 228 232 219 190 197 197 202 207 229 191 241 181 228 211 205 210 209 190 183 193
251 193 197 200 187 201 214 230 229 229 172 212 227 214 229 231 218 272 313 243 273 341 335 86 251 207 240 230 226 182 203 198 207 225 234 246 258 172 268 265 191 197 195 203 208
244 247 192 201 197 182 211 222 221 227 240 231 208 224 230 217 216 230 243 239 270 302 340 296 318 295 252 207 215 227 210 200 214 222 219 233 238 205 223 238 263 242 237 236 242